Regional Weather Roundup
Issued by NWS

Home | Current Version | Previous Version | Text Only | Print | Product List | Glossary Off
Versions: 1 2 3 4 5 6 7 8 9 10 11 12 13 14 15 16 17 18 19 20 21 22 23 24 25 26 27 28 29 30 31 32 33 34 35 36 37 38 39 40 41 42 43 44 45 46 47 48 49 50

000
ASUS43 KFSD 240602
RWRSD

WEATHER ROUNDUP FOR SOUTH DAKOTA
NATIONAL WEATHER SERVICE SIOUX FALLS SD
100 AM CDT FRI OCT 24 2014

NOTE: "FAIR" INDICATES FEW OR NO CLOUDS BELOW 12,000 FEET WITH NO
SIGNIFICANT WEATHER AND/OR OBSTRUCTIONS TO VISIBILITY.


SDZ001>005-009-010-012>017-240700-
NORTHWEST AND NORTH CENTRAL SOUTH DAKOTA

CITY           SKY/WX    TMP DP  RH WIND       PRES   REMARKS
FAITH            N/A     53  27  36 SW6       29.88S
MOBRIDGE       MOCLDY    48  43  82 SE5       29.83S
$$

SDZ012>016-024>037-041>051-057-063-072>074-240700-
SOUTHWEST AND SOUTH CENTRAL SOUTH DAKOTA

CITY           SKY/WX    TMP DP  RH WIND       PRES   REMARKS
RAPID CTY ARPT MOCLDY    46  33  60 W5        29.92S
PIERRE         MOCLDY    46  36  68 W6        29.84S
CUSTER         MOCLDY    42  26  53 W5        30.02F
ELLSWORTH AFB  MOCLDY    50  34  54 W9        29.92S
PHILIP         MOCLDY    44  32  62 W7        29.88F
PINE RIDGE     PTCLDY    37  33  85 E3        29.94F
SPEARFISH      FAIR      48  32  53 SW6       29.94F
WINNER         FAIR      59  34  39 W9        29.87S
$$

SDZ004>011-016>023-039-040-240700-
NORTHEAST SOUTH DAKOTA

CITY           SKY/WX    TMP DP  RH WIND       PRES   REMARKS
ABERDEEN       MOCLDY    41  39  93 S7        29.84F
WATERTOWN      PTCLDY    48  44  86 S8        29.86F
SISSETON         N/A     54  46  74 SW13G18   29.83F
$$

SDZ017-020-022-023-036>040-048>070-240700-
SOUTHEAST SOUTH DAKOTA

CITY           SKY/WX    TMP DP  RH WIND       PRES   REMARKS
SIOUX FALLS    PTCLDY    56  48  74 S10       29.90F
HURON          CLOUDY    49  45  86 SE6       29.84F
CHAMBERLAIN    MOCLDY    47  41  79 SW6       29.85S
MITCHELL       MOCLDY    52  49  89 S7        29.85F
YANKTON        PTCLDY    61  54  77 S10       29.89F
$$

ABBREVIATIONS USED IN REMARKS
   TC - TEMPERATURE IN CELSIUS
  WCI - WIND CHILL INDEX
   HX - HEAT INDEX
  VSB - VISIBILITY




USA.gov is the U.S. government's official web portal to all federal, state and local government web resources and services.